Port Hope, MI

5:16 PM EST on December 22, 2014 (GMT -0500)
Eastwatch-by-the-Sea | Change Station
CLOSE
Current Station
Personal Weather Station
Location: Port Hope, MI
Elevation: 565 ft
Nearby Weather Stations

Elev 565 ft 43.95 °N, 82.72 °W | Updated 3 seconds ago

Overcast
Overcast
34.0 °F
Feels Like 25 °F
N
12.1
Wind Variable Wind from East
Gusts 13.6 mph

Today
High -- | Low -- °F
--% Chance of Precip.
Yesterday
High -- | Low -- °F
Precip. -- in
8:02 AM 4:56 PM
New Moon, 1% visible
Pressure 29.98 in
Visibility 10.0 miles
Clouds Mostly Cloudy 1400 ft
Windchill 25 °F
Dew Point 27 °F
Humidity 75%
Rainfall 0.00 in
Snow Depth Not available.
UV 0 out of 12
Pollen .10 out of 12
Air Quality Not available.
Flu Activity Not available.
METAR KBAX 222155Z AUTO 10006KT 10SM BKN014 00/M02 A2998 RMK AO2 T00001016

More Conditions Fewer Conditions

Pressure 29.98 in
Visibility 10.0 miles
Clouds Mostly Cloudy 1400 ft
Windchill 25 °F
Dew Point 27 °F
Humidity 75%
Rainfall 0.00 in
Snow Depth Not available.
UV 0 out of 12
Pollen .10 out of 12
Air Quality Not available.
Flu Activity Not available.
METAR KBAX 222155Z AUTO 10006KT 10SM BKN014 00/M02 A2998 RMK AO2 T00001016

More Conditions Fewer Conditions

10-Day Weather Forecast

Almanac

Astronomy

Dec. 22, 2014 Rise Set
Actual Time
Civil Twilight
Nautical Twilight
Astronomical Twilight
Moon
Length of Visible Light
Length of Day
Tomorrow will be .
, % of the Moon is Illuminated

Today's Extremes

State Highs State Lows

Community

WunderPhotos

Upload Photos

1,779,691 photos uploaded!

WunderBlogs® & News

Nearby

Air Quality

  Air Quality AQ Index Pollutant
Not available.

Snow Depth

Station Depth Elevation

Earthquake Activity

City Distance Mag. Time & Date
Minimum magnitude displayed is 2.5.

Coastal Water Temperatures

Place Temperature

Nearby Weather Stations